• In Hungary
  • List of Countries
  • For 7 days
  • Water Temperature
  • Satellite Maps
  • Weather Map
  • News
  • Weather Widgets
  • user-avatar
    Login

    Hourly Weather Piechowice

    Today, 19 February, Monday

    Time Temperature Precipitation Wind Pressure Humidity
    00:00 -2°C° 0 mm 1 mps 730 mmHg 83%
    01:00 -2°C° 0 mm 1 mps 729 mmHg 83%
    02:00 -3°C° 0 mm 1 mps 729 mmHg 83%
    03:00 -3°C° 0 mm 1 mps 729 mmHg 82%
    04:00 -3°C° 0 mm 1 mps 728 mmHg 82%
    05:00 -3°C° 0 mm 1 mps 728 mmHg 81%
    06:00 -3°C° 0 mm 1 mps 728 mmHg 80%
    07:00 -3°C° 0 mm 1 mps 728 mmHg 79%
    08:00 -2°C° 0 mm 1 mps 727 mmHg 73%
    09:00 -3°C° 0 mm 2 mps 727 mmHg 66%
    10:00 -2°C° 0 mm 2 mps 727 mmHg 60%
    11:00 -1°C° 0 mm 2 mps 727 mmHg 56%
    12:00 +1°C° 0 mm 2 mps 727 mmHg 52%
    13:00 +2°C° 0 mm 2 mps 726 mmHg 49%
    14:00 +2°C° 0 mm 2 mps 726 mmHg 51%
    15:00 +3°C° 0 mm 1 mps 725 mmHg 54%
    16:00 +2°C° 0 mm 1 mps 725 mmHg 56%
    17:00 +1°C° 0 mm 1 mps 725 mmHg 62%
    18:00 0°C° 0 mm 1 mps 724 mmHg 68%
    19:00 -3°C° 0 mm 2 mps 724 mmHg 74%
    20:00 -1°C° 0 mm 1 mps 724 mmHg 75%
    21:00 -1°C° 0 mm 1 mps 724 mmHg 76%
    22:00 -2°C° 0 mm 1 mps 724 mmHg 77%
    23:00 -2°C° 0 mm 1 mps 724 mmHg 77%

    Tomorrow, 20 February, Tuesday

    Time Temperature Precipitation Wind Pressure Humidity
    00:00 -2°C° 0 mm 1 mps 724 mmHg 77%
    01:00 -2°C° 0 mm 1 mps 724 mmHg 76%
    02:00 -2°C° 0 mm 1 mps 724 mmHg 75%
    03:00 -2°C° 0 mm 1 mps 723 mmHg 74%
    04:00 -2°C° 0 mm 1 mps 723 mmHg 73%
    05:00 -2°C° 0 mm 1 mps 723 mmHg 73%
    06:00 -2°C° 0 mm 1 mps 723 mmHg 72%
    07:00 -2°C° 0 mm 1 mps 723 mmHg 72%
    08:00 -1°C° 0 mm 1 mps 723 mmHg 67%
    09:00 -2°C° 0 mm 2 mps 723 mmHg 62%
    10:00 -1°C° 0 mm 2 mps 724 mmHg 57%
    11:00 +1°C° 0 mm 2 mps 724 mmHg 55%
    12:00 +1°C° 0 mm 2 mps 724 mmHg 52%
    13:00 +2°C° 0 mm 2 mps 724 mmHg 50%
    14:00 +2°C° 0 mm 2 mps 724 mmHg 53%
    15:00 +2°C° 0 mm 2 mps 723 mmHg 55%
    16:00 0°C° 0 mm 3 mps 723 mmHg 58%
    17:00 -1°C° 0 mm 3 mps 723 mmHg 63%
    18:00 -2°C° 0 mm 2 mps 723 mmHg 68%
    19:00 -3°C° 0 mm 2 mps 724 mmHg 73%
    20:00 -4°C° 0 mm 2 mps 724 mmHg 74%
    21:00 -4°C° 0 mm 2 mps 724 mmHg 75%
    22:00 -4°C° 0 mm 2 mps 724 mmHg 75%
    23:00 -4°C° 0 mm 2 mps 724 mmHg 75%

    Day after tomorrow, 21 February, Wednesday

    Time Temperature Precipitation Wind Pressure Humidity
    00:00 -5°C° 0 mm 2 mps 725 mmHg 75%
    01:00 -5°C° 0 mm 2 mps 725 mmHg 75%
    02:00 -5°C° 0 mm 2 mps 725 mmHg 76%
    03:00 -5°C° 0 mm 2 mps 725 mmHg 76%
    04:00 -5°C° 0 mm 2 mps 725 mmHg 77%
    05:00 -5°C° 0 mm 2 mps 725 mmHg 77%
    06:00 -6°C° 0 mm 2 mps 725 mmHg 78%
    07:00 -6°C° 0 mm 2 mps 725 mmHg 78%
    08:00 -5°C° 0 mm 2 mps 726 mmHg 73%
    09:00 -5°C° 0 mm 3 mps 726 mmHg 67%
    10:00 -4°C° 0 mm 3 mps 726 mmHg 62%
    11:00 -2°C° 0 mm 3 mps 726 mmHg 58%
    12:00 -1°C° 0 mm 3 mps 726 mmHg 54%
    13:00 -1°C° 0 mm 4 mps 726 mmHg 50%
    14:00 -1°C° 0 mm 4 mps 726 mmHg 52%
    15:00 -2°C° 0 mm 4 mps 726 mmHg 53%
    16:00 -2°C° 0 mm 4 mps 725 mmHg 55%
    17:00 -3°C° 0 mm 4 mps 726 mmHg 61%
    18:00 -4°C° 0 mm 4 mps 726 mmHg 67%
    19:00 -5°C° 0 mm 4 mps 726 mmHg 73%
    20:00 -5°C° 0 mm 4 mps 726 mmHg 76%
    21:00 -7°C° 0 mm 4 mps 726 mmHg 78%
    22:00 -7°C° 0 mm 4 mps 726 mmHg 80%
    23:00 -7°C° 0 mm 4 mps 726 mmHg 79%

    22 February, Thursday

    Time Temperature Precipitation Wind Pressure Humidity
    00:00 -7°C° 0 mm 4 mps 726 mmHg 79%
    01:00 -7°C° 0 mm 4 mps 726 mmHg 78%
    02:00 -7°C° 0 mm 4 mps 726 mmHg 78%
    03:00 -7°C° 0 mm 4 mps 726 mmHg 77%
    04:00 -7°C° 0 mm 4 mps 726 mmHg 76%
    05:00 -8°C° 0 mm 4 mps 726 mmHg 75%
    06:00 -8°C° 0 mm 4 mps 726 mmHg 74%
    07:00 -8°C° 0 mm 5 mps 726 mmHg 73%
    08:00 -7°C° 0 mm 5 mps 726 mmHg 68%
    09:00 -7°C° 0 mm 5 mps 726 mmHg 64%
    10:00 -6°C° 0 mm 5 mps 726 mmHg 59%
    11:00 -5°C° 0 mm 5 mps 726 mmHg 56%
    12:00 -5°C° 0 mm 6 mps 726 mmHg 53%
    13:00 -4°C° 0 mm 6 mps 726 mmHg 50%
    14:00 -4°C° 0 mm 6 mps 725 mmHg 50%
    15:00 -4°C° 0 mm 6 mps 725 mmHg 50%
    16:00 -4°C° 0 mm 5 mps 725 mmHg 50%
    17:00 -5°C° 0 mm 5 mps 725 mmHg 53%
    18:00 -6°C° 0 mm 5 mps 725 mmHg 56%
    19:00 -7°C° 0 mm 5 mps 725 mmHg 59%
    20:00 -7°C° 0 mm 5 mps 725 mmHg 61%
    21:00 -8°C° 0 mm 5 mps 726 mmHg 62%
    22:00 -8°C° 0 mm 4 mps 726 mmHg 64%
    23:00 -8°C° 0 mm 4 mps 726 mmHg 66%

    23 February, Friday

    Time Temperature Precipitation Wind Pressure Humidity
    00:00 -8°C° 0 mm 4 mps 725 mmHg 68%
    01:00 -8°C° 0 mm 4 mps 725 mmHg 70%
    02:00 -8°C° 0 mm 4 mps 725 mmHg 70%
    03:00 -8°C° 0 mm 5 mps 725 mmHg 70%
    04:00 -8°C° 0 mm 5 mps 725 mmHg 70%
    05:00 -10°C° 0 mm 5 mps 725 mmHg 69%
    06:00 -10°C° 0 mm 5 mps 725 mmHg 68%
    07:00 -10°C° 0 mm 5 mps 726 mmHg 68%
    08:00 -10°C° 0 mm 5 mps 726 mmHg 63%
    09:00 -8°C° 0 mm 5 mps 726 mmHg 59%
    10:00 -8°C° 0 mm 5 mps 727 mmHg 54%
    11:00 -7°C° 0 mm 5 mps 727 mmHg 51%
    12:00 -6°C° 0 mm 5 mps 727 mmHg 48%
    13:00 -6°C° 0 mm 6 mps 727 mmHg 45%
    14:00 -6°C° 0 mm 6 mps 727 mmHg 44%
    15:00 -6°C° 0 mm 6 mps 727 mmHg 43%
    16:00 -8°C° 0 mm 6 mps 727 mmHg 41%
    17:00 -8°C° 0 mm 5 mps 728 mmHg 42%
    18:00 -8°C° 0 mm 5 mps 728 mmHg 43%
    19:00 -10°C° 0 mm 5 mps 728 mmHg 44%
    20:00 -9°C° 0 mm 4 mps 729 mmHg 44%
    21:00 -10°C° 0 mm 4 mps 729 mmHg 44%
    22:00 -10°C° 0 mm 4 mps 729 mmHg 43%
    23:00 -10°C° 0 mm 4 mps 729 mmHg 45%

    24 February, Saturday

    Time Temperature Precipitation Wind Pressure Humidity
    00:00 -10°C° 0 mm 4 mps 729 mmHg 47%
    01:00 -9°C° 0 mm 3 mps 729 mmHg 49%
    02:00 -10°C° 0 mm 3 mps 729 mmHg 51%
    03:00 -10°C° 0 mm 3 mps 729 mmHg 53%
    04:00 -10°C° 0 mm 3 mps 730 mmHg 56%
    05:00 -10°C° 0 mm 3 mps 730 mmHg 59%
    06:00 -9°C° 0 mm 2 mps 730 mmHg 62%
    07:00 -9°C° 0 mm 2 mps 730 mmHg 64%
    08:00 -10°C° 0 mm 3 mps 731 mmHg 61%
    09:00 -10°C° 0 mm 4 mps 731 mmHg 58%
    10:00 -9°C° 0 mm 4 mps 732 mmHg 54%
    11:00 -8°C° 0 mm 4 mps 731 mmHg 49%
    12:00 -8°C° 0 mm 4 mps 731 mmHg 43%
    13:00 -7°C° 0 mm 4 mps 731 mmHg 38%
    14:00 -7°C° 0 mm 4 mps 731 mmHg 39%
    15:00 -7°C° 0 mm 4 mps 730 mmHg 41%
    16:00 -7°C° 0 mm 4 mps 730 mmHg 42%
    17:00 -8°C° 0 mm 4 mps 730 mmHg 48%
    18:00 -8°C° 0 mm 4 mps 729 mmHg 54%
    19:00 -9°C° 0 mm 4 mps 729 mmHg 59%
    20:00 -9°C° 0.2 mm 4 mps 729 mmHg 63%
    21:00 -10°C° 0.2 mm 5 mps 729 mmHg 66%
    22:00 -10°C° 0.2 mm 5 mps 729 mmHg 70%
    23:00 -11°C° 0.1 mm 5 mps 729 mmHg 68%
    Show more